TimeCST,TemperatureF,Dew PointF,Humidity,Sea Level PressureIn,VisibilityMPH,Wind Direction,Wind SpeedMPH,Gust SpeedMPH,PrecipitationIn,Events,Conditions,WindDirDegrees,DateUTC
12:53 AM,48.0,30.0,50,29.99,10.0,South,13.8,-,N/A,,Scattered Clouds,180,2012-12-06 06:53:00
1:53 AM,48.0,30.9,52,29.98,10.0,South,16.1,-,N/A,,Scattered Clouds,180,2012-12-06 07:53:00
2:53 AM,46.0,30.9,56,29.98,10.0,South,13.8,-,N/A,,Clear,180,2012-12-06 08:53:00
3:53 AM,44.1,30.9,60,29.96,10.0,South,10.4,-,N/A,,Scattered Clouds,170,2012-12-06 09:53:00
4:53 AM,44.1,30.9,60,29.94,10.0,South,12.7,-,N/A,,Scattered Clouds,170,2012-12-06 10:53:00
5:53 AM,43.0,30.9,62,29.94,10.0,South,10.4,-,N/A,,Scattered Clouds,170,2012-12-06 11:53:00
6:53 AM,45.0,32.0,60,29.94,10.0,South,11.5,-,N/A,,Mostly Cloudy,170,2012-12-06 12:53:00
7:53 AM,45.0,33.1,63,29.95,10.0,South,8.1,-,N/A,,Clear,170,2012-12-06 13:53:00
8:53 AM,46.9,33.1,59,29.95,10.0,South,9.2,-,N/A,,Overcast,170,2012-12-06 14:53:00
9:53 AM,48.0,34.0,58,29.94,10.0,South,13.8,-,N/A,,Overcast,180,2012-12-06 15:53:00
10:53 AM,48.9,36.0,61,29.94,9.0,South,9.2,-,N/A,,Overcast,180,2012-12-06 16:53:00
11:53 AM,51.1,37.9,61,29.91,10.0,SSW,8.1,-,N/A,,Overcast,200,2012-12-06 17:53:00
12:42 PM,51.8,39.2,62,29.91,9.0,West,8.1,-,N/A,,Overcast,260,2012-12-06 18:42:00
12:53 PM,52.0,39.9,63,29.91,10.0,WSW,6.9,-,N/A,,Overcast,250,2012-12-06 18:53:00
1:13 PM,51.8,41.0,67,29.89,10.0,SW,5.8,-,N/A,,Overcast,220,2012-12-06 19:13:00
1:53 PM,51.1,41.0,68,29.88,10.0,WSW,3.5,-,0.00,Rain,Light Rain,250,2012-12-06 19:53:00
2:28 PM,51.8,41.0,67,29.87,10.0,Calm,Calm,-,0.00,,Overcast,0,2012-12-06 20:28:00
2:53 PM,52.0,41.0,66,29.87,10.0,Calm,Calm,-,0.00,,Overcast,0,2012-12-06 20:53:00
3:30 PM,51.8,39.2,62,29.87,10.0,ESE,5.8,-,N/A,,Overcast,120,2012-12-06 21:30:00
3:53 PM,51.1,39.9,66,29.89,10.0,ESE,3.5,-,N/A,,Overcast,120,2012-12-06 21:53:00
4:53 PM,50.0,39.9,68,29.89,10.0,NE,3.5,-,N/A,,Overcast,50,2012-12-06 22:53:00
5:53 PM,48.0,39.0,71,29.91,10.0,North,4.6,-,N/A,,Overcast,10,2012-12-06 23:53:00
6:53 PM,48.0,39.9,74,29.92,10.0,North,3.5,-,N/A,,Overcast,350,2012-12-07 00:53:00
7:53 PM,48.9,39.9,71,29.92,10.0,North,3.5,-,N/A,,Overcast,10,2012-12-07 01:53:00
8:53 PM,46.9,39.9,77,29.92,10.0,NNE,4.6,-,N/A,,Overcast,20,2012-12-07 02:53:00
9:23 PM,46.4,39.2,76,29.91,10.0,NNE,4.6,-,N/A,,Overcast,20,2012-12-07 03:23:00
9:53 PM,46.9,39.9,77,29.91,10.0,NNE,6.9,-,N/A,,Overcast,20,2012-12-07 03:53:00
10:00 PM,46.4,39.2,76,29.91,10.0,NNE,6.9,-,N/A,,Overcast,20,2012-12-07 04:00:00
10:53 PM,46.9,39.9,77,29.92,10.0,NNE,11.5,-,N/A,,Overcast,20,2012-12-07 04:53:00
11:53 PM,46.0,39.0,76,29.91,10.0,NNE,10.4,-,N/A,,Overcast,30,2012-12-07 05:53:00